To NAV CANADA Home Page Login to a new session Search on AWWS site Disclaimer Vers la page française équivalente Tips FAQ What's new on the site To the Forecasts and Observations / NOTAM section To "File a Flight Plan" website Publications and other links Update of the User's profile FIC Telephone Numbers My Weather Data Folder Route Weather Data Regional Weather Data Local Weather Data To the Forecasts and Observations / NOTAM section
Request Generated 04/24/2019 at 16:25:59 UTC . Weather information available at that time is displayed.

METAR/TAF

HOPE/BC    (show WxCam)

METAR CYHE 241600Z AUTO 29004KT 250V010 9SM SCT035 OVC065 10/05 A3033 RMK SLP272=
METAR CYHE 241500Z AUTO VRB02KT 9SM BKN035 BKN060 09/05 A3032 RMK SLP270=
METAR CYHE 241400Z AUTO 26007KT 200V290 9SM FEW026 OVC060 09/05 A3030 RMK SLP262=

CYHE - No TAF is issued for this station

Your time UTC time
Weather data provided by Environment Canada and NAV CANADA